Regional Weather Roundup
Issued by NWS Charleston, WV

Home | Current Version | Previous Version | Graphics & Text | Print | Product List | Glossary On
Versions: 1 2 3 4 5 6 7 8 9 10 11 12 13 14 15 16 17 18 19 20 21 22 23 24 25 26 27
000
ASUS41 KRLX 222010
RWRRLX
West Virginia Regional Weather Roundup
National Weather Service Charleston WV
400 PM EDT SUN APR 22 2018

Note: "fair" indicates few or no clouds below 12,000 feet with no
significant weather and/or obstructions to visibility.

WVZ003-222100-
Northern Panhandle of West Virginia

CITY           SKY/WX    TMP DP  RH WIND       PRES   REMARKS
WHEELING       FAIR      65  28  24 MISG      30.26F
$$

WVZ009-222100-
Northwest West Virginia

CITY           SKY/WX    TMP DP  RH WIND       PRES   REMARKS
PARKERSBURG    FAIR      69  23  17 NE8       30.25F
$$

WVZ006-222100-
Western West Virginia

CITY           SKY/WX    TMP DP  RH WIND       PRES   REMARKS
HUNTINGTON     FAIR      64  28  25 NE10      30.21F
$$

WVZ015-222100-
West Central West Virginia

CITY           SKY/WX    TMP DP  RH WIND       PRES   REMARKS
CHARLESTON     PTSUNNY   69  31  24 NE9       30.20F
$$

WVZ022-031-222100-
North Central West Virginia

CITY           SKY/WX    TMP DP  RH WIND       PRES   REMARKS
CLARKSBURG     FAIR      70  23  17 CALM      30.23F
MORGANTOWN     FAIR      69  28  21 NW7       30.24F
$$

WVZ025-035-042-045-222100-
Southern West Virginia

CITY           SKY/WX    TMP DP  RH WIND       PRES   REMARKS
BECKLEY        FAIR      66  32  28 SE9       30.22F
LOGAN          FAIR      73  30  20 CALM      30.18F
BLUEFIELD      FAIR      63  33  32 SE12G18   30.24F
LEWISBURG      FAIR      66  31  27 S6        30.25F
$$

WVZ047-222100-
Northern Mountains of West Virginia

CITY           SKY/WX    TMP DP  RH WIND       PRES   REMARKS
ELKINS         FAIR      67  21  17 SW3       30.24F
$$

WVZ052-222100-
Eastern Panhandle of West Virginia

CITY           SKY/WX    TMP DP  RH WIND       PRES   REMARKS
MARTINSBURG    PTSUNNY   66  39  37 E7        30.30F
PETERSBURG     FAIR      66  36  32 CALM      30.25F
$$




USA.gov is the U.S. government's official web portal to all federal, state and local government web resources and services.